TimeEST,TemperatureF,Dew PointF,Humidity,Sea Level PressureIn,VisibilityMPH,Wind Direction,Wind SpeedMPH,Gust SpeedMPH,PrecipitationIn,Events,Conditions,WindDirDegrees,DateUTC
12:58 AM,73.4,69.1,86,30.05,10.0,SE,5.8,-,N/A,,Clear,140,2014-01-02 05:58:00
1:58 AM,73.8,69.4,86,30.03,10.0,SE,6.9,-,N/A,,Clear,130,2014-01-02 06:58:00
2:58 AM,73.8,69.4,86,30.02,10.0,SE,4.6,-,N/A,,Clear,140,2014-01-02 07:58:00
3:58 AM,72.5,68.2,86,30.01,10.0,SSE,4.6,-,N/A,,Clear,150,2014-01-02 08:58:00
4:58 AM,72.0,68.4,88,30.01,10.0,SSE,5.8,-,N/A,,Clear,150,2014-01-02 09:58:00
5:58 AM,73.2,69.1,87,30.00,10.0,SE,5.8,-,N/A,,Clear,140,2014-01-02 10:58:00
6:58 AM,72.3,69.6,91,30.01,10.0,SE,3.5,-,N/A,,Clear,140,2014-01-02 11:58:00
7:58 AM,72.5,70.0,92,30.03,10.0,SSE,3.5,-,N/A,,Clear,160,2014-01-02 12:58:00
8:58 AM,77.9,70.9,79,30.05,10.0,South,5.8,-,N/A,,Clear,170,2014-01-02 13:58:00
9:58 AM,80.2,69.4,69,30.05,10.0,South,10.4,-,N/A,,Partly Cloudy,180,2014-01-02 14:58:00
10:58 AM,81.5,69.3,66,30.03,10.0,South,12.7,-,N/A,,Partly Cloudy,190,2014-01-02 15:58:00
11:58 AM,81.3,70.0,68,30.00,10.0,South,10.4,20.7,N/A,,Partly Cloudy,190,2014-01-02 16:58:00
12:58 PM,81.5,69.6,67,29.96,10.0,South,10.4,-,N/A,,Partly Cloudy,190,2014-01-02 17:58:00
1:58 PM,81.5,70.2,68,29.94,10.0,SSW,13.8,-,N/A,,Clear,200,2014-01-02 18:58:00
2:58 PM,81.1,72.0,74,29.93,10.0,SSW,16.1,18.4,N/A,,Clear,210,2014-01-02 19:58:00
3:58 PM,81.3,69.3,67,29.92,10.0,SW,13.8,-,N/A,,Clear,220,2014-01-02 20:58:00
4:58 PM,79.5,68.7,69,29.93,10.0,SW,10.4,-,N/A,,Clear,220,2014-01-02 21:58:00
5:58 PM,74.3,68.9,83,29.94,10.0,SW,6.9,-,N/A,,Clear,230,2014-01-02 22:58:00
6:58 PM,71.8,68.5,89,29.95,10.0,SSW,5.8,-,N/A,,Clear,210,2014-01-02 23:58:00
7:58 PM,71.4,69.4,93,29.96,10.0,SSW,4.6,-,N/A,,Clear,210,2014-01-03 00:58:00
8:58 PM,69.4,69.1,99,29.97,10.0,WSW,3.5,-,N/A,,Clear,240,2014-01-03 01:58:00
9:58 PM,69.1,69.1,100,29.99,10.0,WSW,3.5,-,N/A,,Clear,250,2014-01-03 02:58:00
10:03 PM,69.8,69.8,100,29.98,8.0,West,3.5,-,N/A,,Clear,260,2014-01-03 03:03:00
10:13 PM,68.0,68.0,100,29.98,9.0,WSW,4.6,-,N/A,,Clear,250,2014-01-03 03:13:00
10:58 PM,69.3,69.3,100,29.98,10.0,SW,5.8,-,N/A,,Clear,220,2014-01-03 03:58:00
11:08 PM,68.0,68.0,100,29.97,8.0,SW,5.8,-,N/A,,Clear,230,2014-01-03 04:08:00
11:58 PM,69.3,69.3,100,29.97,8.0,SSW,5.8,-,N/A,,Clear,210,2014-01-03 04:58:00